| time (UTC) | temp F | wind direction | speed MPH | gust MPH | rain 1hr in | rain 24hr in | rain mn in | humidity % | barometer mb |
| 20260508213529 | 67 | 279 | 3.0 | 10.0 | 0.00 | 0.00 | 0.00 | 31 | 1009.9 |
| 20260508213039 | 67 | 291 | 3.0 | 10.0 | 0.00 | 0.00 | 0.00 | 31 | 1009.9 |
| 20260508212528 | 68 | 309 | 2.0 | 10.0 | 0.00 | 0.00 | 0.00 | 30 | 1010.0 |
| 20260508212028 | 68 | 302 | 2.0 | 10.0 | 0.00 | 0.00 | 0.00 | 32 | 1010.0 |
| 20260508211545 | 68 | 319 | 3.0 | 10.0 | 0.00 | 0.00 | 0.00 | 30 | 1010.0 |
| 20260508211029 | 68 | 276 | 3.0 | 9.0 | 0.00 | 0.00 | 0.00 | 31 | 1010.1 |
| 20260508210528 | 67 | 251 | 3.0 | 12.0 | 0.00 | 0.00 | 0.00 | 31 | 1010.1 |
| 20260508210047 | 67 | 301 | 3.0 | 13.0 | 0.00 | 0.00 | 0.00 | 32 | 1010.2 |
| 20260508205528 | 67 | 269 | 4.0 | 16.0 | 0.00 | 0.00 | 0.00 | 31 | 1010.2 |
| 20260508205028 | 67 | 321 | 6.0 | 16.0 | 0.00 | 0.00 | 0.00 | 32 | 1010.2 |
| 20260508204545 | 67 | 287 | 4.0 | 10.0 | 0.00 | 0.00 | 0.00 | 31 | 1010.2 |
| 20260508204028 | 67 | 335 | 2.0 | 15.0 | 0.00 | 0.00 | 0.00 | 31 | 1010.3 |
| 20260508203528 | 68 | 287 | 3.0 | 15.0 | 0.00 | 0.00 | 0.00 | 31 | 1010.3 |
| 20260508203050 | 68 | 296 | 6.0 | 23.0 | 0.00 | 0.00 | 0.00 | 31 | 1010.6 |
| 20260508202528 | 67 | 304 | 7.0 | 23.0 | 0.00 | 0.00 | 0.00 | 30 | 1010.4 |
| 20260508202028 | 68 | 284 | 4.0 | 12.0 | 0.00 | 0.00 | 0.00 | 31 | 1010.4 |
| 20260508201537 | 68 | 310 | 2.0 | 12.0 | 0.00 | 0.00 | 0.00 | 31 | 1010.4 |
| 20260508201029 | 67 | 296 | 4.0 | 12.0 | 0.00 | 0.00 | 0.00 | 32 | 1010.5 |
| 20260508200528 | 67 | 314 | 2.0 | 14.0 | 0.00 | 0.00 | 0.00 | 33 | 1010.7 |
| 20260508200056 | 66 | 302 | 3.0 | 14.0 | 0.00 | 0.00 | 0.00 | 32 | 1010.6 |
| 20260508195527 | 66 | 289 | 5.0 | 14.0 | 0.00 | 0.00 | 0.00 | 31 | 1010.6 |
| 20260508195027 | 67 | 281 | 5.0 | 13.0 | 0.00 | 0.00 | 0.00 | 31 | 1010.7 |
| 20260508194544 | 67 | 294 | 6.0 | 12.0 | 0.00 | 0.00 | 0.00 | 30 | 1010.6 |
| 20260508194028 | 67 | 236 | 3.0 | 9.0 | 0.00 | 0.00 | 0.00 | 32 | 1010.7 |
| 20260508193528 | 67 | 290 | 2.0 | 13.0 | 0.00 | 0.00 | 0.00 | 34 | 1010.7 |
| 20260508193054 | 67 | 347 | 3.0 | 13.0 | 0.00 | 0.00 | 0.00 | 34 | 1010.7 |
| 20260508192528 | 67 | 275 | 2.0 | 13.0 | 0.00 | 0.00 | 0.00 | 35 | 1010.7 |
| 20260508192032 | 67 | 303 | 3.0 | 13.0 | 0.00 | 0.00 | 0.00 | 34 | 1010.8 |
| 20260508191543 | 67 | 271 | 4.0 | 13.0 | 0.00 | 0.00 | 0.00 | 33 | 1010.8 |
| 20260508191028 | 66 | 296 | 4.0 | 13.0 | 0.00 | 0.00 | 0.00 | 35 | 1010.6 |
| 20260508190528 | 66 | 276 | 5.0 | 13.0 | 0.00 | 0.00 | 0.00 | 34 | 1010.7 |
| 20260508190046 | 66 | 296 | 3.0 | 13.0 | 0.00 | 0.00 | 0.00 | 34 | 1010.8 |
| 20260508185529 | 66 | 275 | 4.0 | 12.0 | 0.00 | 0.00 | 0.00 | 33 | 1010.9 |
| 20260508185029 | 66 | 304 | 3.0 | 8.0 | 0.00 | 0.00 | 0.00 | 33 | 1011.0 |
| 20260508184558 | 66 | 268 | 3.0 | 12.0 | 0.00 | 0.00 | 0.00 | 35 | 1011.1 |
| 20260508184027 | 65 | 280 | 3.0 | 12.0 | 0.00 | 0.00 | 0.00 | 35 | 1011.1 |
| 20260508183528 | 66 | 281 | 3.0 | 12.0 | 0.00 | 0.00 | 0.00 | 34 | 1011.1 |
| 20260508183058 | 66 | 230 | 3.0 | 15.0 | 0.00 | 0.00 | 0.00 | 34 | 1011.2 |
| 20260508182530 | 65 | 130 | 6.0 | 15.0 | 0.00 | 0.00 | 0.00 | 35 | 1011.2 |
| 20260508182028 | 65 | 319 | 3.0 | 14.0 | 0.00 | 0.00 | 0.00 | 35 | 1011.4 |
| 20260508181544 | 64 | 259 | 3.0 | 17.0 | 0.00 | 0.00 | 0.00 | 34 | 1011.5 |
| 20260508181028 | 64 | 281 | 4.0 | 17.0 | 0.00 | 0.00 | 0.00 | 34 | 1011.5 |
| 20260508180527 | 64 | 275 | 3.0 | 11.0 | 0.00 | 0.00 | 0.00 | 35 | 1011.5 |
| 20260508180043 | 64 | 244 | 2.0 | 11.0 | 0.00 | 0.00 | 0.00 | 35 | 1011.7 |
| 20260508175528 | 65 | 275 | 3.0 | 12.0 | 0.00 | 0.00 | 0.00 | 33 | 1011.8 |
| 20260508175031 | 65 | 255 | 4.0 | 16.0 | 0.00 | 0.00 | 0.00 | 34 | 1011.8 |
| 20260508174555 | 64 | 213 | 4.0 | 16.0 | 0.00 | 0.00 | 0.00 | 34 | 1011.7 |
| 20260508174031 | 64 | 285 | 3.0 | 16.0 | 0.00 | 0.00 | 0.00 | 34 | 1011.8 |
| 20260508173528 | 65 | 263 | 4.0 | 17.0 | 0.00 | 0.00 | 0.00 | 33 | 1011.9 |
| 20260508173035 | 65 | 260 | 4.0 | 17.0 | 0.00 | 0.00 | 0.00 | 33 | 1011.8 |
| 20260508172528 | 64 | 280 | 4.0 | 17.0 | 0.00 | 0.00 | 0.00 | 33 | 1011.7 |
| 20260508172028 | 64 | 292 | 5.0 | 16.0 | 0.00 | 0.00 | 0.00 | 33 | 1011.9 |
| 20260508171546 | 65 | 277 | 4.0 | 16.0 | 0.00 | 0.00 | 0.00 | 34 | 1012.0 |
| 20260508171029 | 65 | 281 | 2.0 | 10.0 | 0.00 | 0.00 | 0.00 | 34 | 1012.0 |
| 20260508170528 | 65 | 255 | 4.0 | 12.0 | 0.00 | 0.00 | 0.00 | 32 | 1011.8 |
| 20260508170045 | 64 | 326 | 2.0 | 12.0 | 0.00 | 0.00 | 0.00 | 35 | 1012.0 |
| 20260508165529 | 64 | 266 | 2.0 | 16.0 | 0.00 | 0.00 | 0.00 | 35 | 1012.1 |
| 20260508165028 | 64 | 263 | 4.0 | 16.0 | 0.00 | 0.00 | 0.00 | 35 | 1012.1 |
| 20260508164548 | 63 | 306 | 3.0 | 12.0 | 0.00 | 0.00 | 0.00 | 36 | 1012.3 |
| 20260508164028 | 63 | 277 | 4.0 | 11.0 | 0.00 | 0.00 | 0.00 | 36 | 1012.4 |
| 20260508163528 | 63 | 269 | 1.0 | 12.0 | 0.00 | 0.00 | 0.00 | 37 | 1012.3 |
| 20260508163106 | 63 | 206 | 4.0 | 12.0 | 0.00 | 0.00 | 0.00 | 35 | 1012.5 |
| 20260508162527 | 63 | 277 | 2.0 | 11.0 | 0.00 | 0.00 | 0.00 | 36 | 1012.6 |
| 20260508162025 | 62 | 300 | 5.0 | 15.0 | 0.00 | 0.00 | 0.00 | 36 | 1012.7 |
| 20260508161537 | 62 | 333 | 6.0 | 15.0 | 0.00 | 0.00 | 0.00 | 36 | 1012.8 |
| 20260508161027 | 62 | 285 | 3.0 | 11.0 | 0.00 | 0.00 | 0.00 | 36 | 1012.9 |
| 20260508160526 | 62 | 274 | 2.0 | 7.0 | 0.00 | 0.00 | 0.00 | 37 | 1013.0 |
| 20260508160043 | 62 | 57 | 2.0 | 15.0 | 0.00 | 0.00 | 0.00 | 35 | 1012.9 |
| 20260508155526 | 61 | 286 | 7.0 | 15.0 | 0.00 | 0.00 | 0.00 | 36 | 1013.1 |
| 20260508155026 | 62 | 279 | 4.0 | 13.0 | 0.00 | 0.00 | 0.00 | 37 | 1013.1 |
| 20260508154551 | 61 | 273 | 4.0 | 13.0 | 0.00 | 0.00 | 0.00 | 36 | 1013.2 |
| 20260508154026 | 61 | 319 | 3.0 | 16.0 | 0.00 | 0.00 | 0.00 | 36 | 1013.3 |
| 20260508153526 | 62 | 288 | 4.0 | 16.0 | 0.00 | 0.00 | 0.00 | 36 | 1013.2 |
| 20260508153044 | 62 | 303 | 5.0 | 11.0 | 0.00 | 0.00 | 0.00 | 36 | 1013.1 |
| 20260508152524 | 62 | 273 | 3.0 | 9.0 | 0.00 | 0.00 | 0.00 | 37 | 1013.2 |
| 20260508152026 | 62 | 232 | 1.0 | 8.0 | 0.00 | 0.00 | 0.00 | 38 | 1013.2 |
| 20260508151540 | 61 | 146 | 3.0 | 8.0 | 0.00 | 0.00 | 0.00 | 38 | 1013.3 |
| 20260508151033 | 61 | 290 | 2.0 | 10.0 | 0.00 | 0.00 | 0.00 | 38 | 1013.3 |
| 20260508150525 | 61 | 263 | 4.0 | 10.0 | 0.00 | 0.00 | 0.00 | 37 | 1013.2 |
| 20260508150037 | 61 | 230 | 2.0 | 10.0 | 0.00 | 0.00 | 0.00 | 37 | 1013.3 |
| 20260508145523 | 60 | 277 | 2.0 | 10.0 | 0.00 | 0.00 | 0.00 | 38 | 1013.4 |
| 20260508145025 | 60 | 227 | 4.0 | 8.0 | 0.00 | 0.00 | 0.00 | 37 | 1013.5 |
| 20260508144544 | 60 | 229 | 2.0 | 10.0 | 0.00 | 0.00 | 0.00 | 41 | 1013.5 |
| 20260508144025 | 60 | 277 | 4.0 | 11.0 | 0.00 | 0.00 | 0.00 | 38 | 1013.6 |
| 20260508143526 | 60 | 277 | 3.0 | 11.0 | 0.00 | 0.00 | 0.00 | 39 | 1013.6 |
| 20260508143045 | 59 | 270 | 2.0 | 7.0 | 0.00 | 0.00 | 0.00 | 42 | 1013.6 |
| 20260508142527 | 59 | 306 | 2.0 | 5.0 | 0.00 | 0.00 | 0.00 | 39 | 1013.6 |
| 20260508142026 | 59 | 326 | 2.0 | 4.0 | 0.00 | 0.00 | 0.00 | 40 | 1013.6 |
| 20260508141541 | 59 | 253 | 1.0 | 7.0 | 0.00 | 0.00 | 0.00 | 42 | 1013.6 |
| 20260508141027 | 58 | 288 | 2.0 | 8.0 | 0.00 | 0.00 | 0.00 | 43 | 1013.6 |
| 20260508140524 | 58 | 275 | 1.0 | 9.0 | 0.00 | 0.00 | 0.00 | 45 | 1013.6 |
| 20260508140037 | 58 | 182 | 3.0 | 9.0 | 0.00 | 0.00 | 0.00 | 45 | 1013.6 |
| 20260508135530 | 58 | 257 | 2.0 | 5.0 | 0.00 | 0.00 | 0.00 | 41 | 1013.7 |
| 20260508135026 | 58 | 283 | 2.0 | 5.0 | 0.00 | 0.00 | 0.00 | 42 | 1013.7 |
| 20260508134546 | 59 | 275 | 1.0 | 4.0 | 0.00 | 0.00 | 0.00 | 42 | 1013.7 |
| 20260508134023 | 58 | 265 | 1.0 | 4.0 | 0.00 | 0.00 | 0.00 | 46 | 1013.7 |
| 20260508133527 | 58 | 320 | 1.0 | 4.0 | 0.00 | 0.00 | 0.00 | 44 | 1013.9 |
| 20260508133048 | 58 | 329 | 1.0 | 4.0 | 0.00 | 0.00 | 0.00 | 43 | 1013.9 |
| 20260508132524 | 57 | 339 | 1.0 | 3.0 | 0.00 | 0.00 | 0.00 | 43 | 1013.8 |
| 20260508132029 | 57 | 281 | 1.0 | 3.0 | 0.00 | 0.00 | 0.00 | 44 | 1013.9 |
| 20260508131551 | 57 | 271 | 1.0 | 4.0 | 0.00 | 0.00 | 0.00 | 46 | 1014.0 |
| 20260508131029 | 56 | 311 | 1.0 | 4.0 | 0.00 | 0.00 | 0.00 | 48 | 1014.0 |
| 20260508130532 | 56 | 283 | 1.0 | 4.0 | 0.00 | 0.00 | 0.00 | 48 | 1013.9 |
| 20260508130052 | 56 | 294 | 1.0 | 4.0 | 0.00 | 0.00 | 0.00 | 49 | 1013.9 |
| 20260508125529 | 55 | 59 | 1.0 | 4.0 | 0.00 | 0.00 | 0.00 | 51 | 1013.8 |
| 20260508125029 | 55 | 311 | 1.0 | 5.0 | 0.00 | 0.00 | 0.00 | 52 | 1013.8 |
| 20260508124543 | 55 | 306 | 2.0 | 5.0 | 0.00 | 0.00 | 0.00 | 52 | 1013.8 |
| 20260508124032 | 55 | 311 | 1.0 | 3.0 | 0.00 | 0.00 | 0.00 | 56 | 1013.9 |
| 20260508123525 | 55 | 307 | 1.0 | 5.0 | 0.00 | 0.00 | 0.00 | 57 | 1013.8 |
| 20260508123044 | 55 | 340 | 1.0 | 5.0 | 0.00 | 0.00 | 0.00 | 57 | 1013.8 |
| 20260508122528 | 54 | 322 | 1.0 | 4.0 | 0.00 | 0.00 | 0.00 | 57 | 1013.8 |
| 20260508122029 | 54 | 292 | 1.0 | 4.0 | 0.00 | 0.00 | 0.00 | 60 | 1013.8 |
| 20260508121546 | 54 | 315 | 0.0 | 2.0 | 0.00 | 0.00 | 0.00 | 61 | 1013.8 |
| 20260508121030 | 54 | 321 | 1.0 | 3.0 | 0.00 | 0.00 | 0.00 | 60 | 1013.8 |
| 20260508120528 | 53 | 288 | 1.0 | 3.0 | 0.00 | 0.00 | 0.00 | 63 | 1013.7 |
| 20260508120045 | 53 | 257 | 1.0 | 2.0 | 0.00 | 0.00 | 0.00 | 64 | 1013.6 |
| 20260508115531 | 53 | 277 | 0.0 | 2.0 | 0.00 | 0.00 | 0.00 | 65 | 1013.6 |
| 20260508115025 | 53 | 324 | 0.0 | 2.0 | 0.00 | 0.00 | 0.00 | 66 | 1013.6 |
| 20260508114543 | 52 | 286 | 1.0 | 2.0 | 0.00 | 0.00 | 0.00 | 66 | 1013.6 |
| 20260508114028 | 52 | 264 | 0.0 | 3.0 | 0.00 | 0.00 | 0.00 | 68 | 1013.6 |
| 20260508113527 | 51 | 338 | 0.0 | 3.0 | 0.00 | 0.00 | 0.00 | 69 | 1013.8 |
| 20260508113052 | 51 | 263 | 1.0 | 2.0 | 0.00 | 0.00 | 0.00 | 69 | 1013.7 |
| 20260508112525 | 51 | 296 | 0.0 | 2.0 | 0.00 | 0.00 | 0.00 | 71 | 1013.7 |
| 20260508112028 | 50 | 286 | 0.0 | 2.0 | 0.00 | 0.00 | 0.00 | 71 | 1013.6 |
| 20260508111544 | 50 | 307 | 0.0 | 1.0 | 0.00 | 0.00 | 0.00 | 73 | 1013.5 |
| 20260508111026 | 49 | 0 | 0.0 | 1.0 | 0.00 | 0.00 | 0.00 | 76 | 1013.3 |
| 20260508110529 | 48 | 0 | 0.0 | 0.0 | 0.00 | 0.00 | 0.00 | 78 | 1013.2 |
| 20260508110054 | 46 | 0 | 0.0 | 0.0 | 0.00 | 0.00 | 0.00 | 80 | 1013.2 |
| 20260508105525 | 45 | 0 | 0.0 | 0.0 | 0.00 | 0.00 | 0.00 | 81 | 1013.1 |
| 20260508105026 | 44 | 0 | 0.0 | 0.0 | 0.00 | 0.00 | 0.00 | 82 | 1013.1 |
| 20260508104546 | 44 | 0 | 0.0 | 0.0 | 0.00 | 0.00 | 0.00 | 81 | 1013.0 |
| 20260508104026 | 44 | 0 | 0.0 | 0.0 | 0.00 | 0.00 | 0.00 | 80 | 1013.0 |
| 20260508103526 | 44 | 0 | 0.0 | 0.0 | 0.00 | 0.00 | 0.00 | 81 | 1013.1 |
| 20260508103043 | 44 | 0 | 0.0 | 0.0 | 0.00 | 0.00 | 0.00 | 80 | 1013.0 |
| 20260508102528 | 44 | 0 | 0.0 | 0.0 | 0.00 | 0.00 | 0.00 | 79 | 1012.9 |
| 20260508102029 | 44 | 0 | 0.0 | 0.0 | 0.00 | 0.00 | 0.00 | 79 | 1012.9 |
| 20260508101550 | 44 | 0 | 0.0 | 0.0 | 0.00 | 0.00 | 0.00 | 79 | 1012.8 |
| 20260508101027 | 44 | 0 | 0.0 | 0.0 | 0.00 | 0.00 | 0.00 | 78 | 1012.7 |
| 20260508100526 | 45 | 0 | 0.0 | 0.0 | 0.00 | 0.00 | 0.00 | 76 | 1012.7 |
| 20260508100041 | 45 | 0 | 0.0 | 0.0 | 0.00 | 0.00 | 0.00 | 75 | 1012.6 |
| 20260508095528 | 46 | 0 | 0.0 | 0.0 | 0.00 | 0.00 | 0.00 | 74 | 1012.5 |
| 20260508095027 | 47 | 0 | 0.0 | 0.0 | 0.00 | 0.00 | 0.00 | 73 | 1012.4 |
| 20260508094552 | 47 | 0 | 0.0 | 1.0 | 0.00 | 0.00 | 0.00 | 71 | 1012.5 |
| 20260508094025 | 48 | 0 | 0.0 | 2.0 | 0.00 | 0.00 | 0.00 | 70 | 1012.3 |
| 20260508093526 | 48 | 0 | 0.0 | 4.0 | 0.00 | 0.00 | 0.00 | 69 | 1012.2 |
| 20260508093055 | 49 | 344 | 0.0 | 4.0 | 0.00 | 0.00 | 0.00 | 68 | 1012.1 |
| 20260508092526 | 49 | 344 | 2.0 | 5.0 | 0.00 | 0.00 | 0.00 | 67 | 1012.1 |
| 20260508092026 | 49 | 319 | 1.0 | 5.0 | 0.00 | 0.00 | 0.00 | 67 | 1012.2 |
| 20260508091542 | 49 | 346 | 1.0 | 4.0 | 0.00 | 0.00 | 0.00 | 67 | 1012.2 |
| 20260508091027 | 49 | 329 | 0.0 | 3.0 | 0.00 | 0.00 | 0.00 | 66 | 1012.1 |
| 20260508090526 | 50 | 340 | 0.0 | 3.0 | 0.00 | 0.00 | 0.00 | 66 | 1012.1 |
| 20260508085524 | 50 | 319 | 2.0 | 4.0 | 0.00 | 0.00 | 0.00 | 65 | 1012.0 |
| 20260508085024 | 50 | 326 | 1.0 | 6.0 | 0.00 | 0.00 | 0.00 | 64 | 1011.9 |
| 20260508084536 | 51 | 321 | 1.0 | 8.0 | 0.00 | 0.00 | 0.00 | 64 | 1011.8 |
| 20260508084025 | 51 | 337 | 4.0 | 9.0 | 0.00 | 0.00 | 0.00 | 63 | 1011.8 |
| 20260508083527 | 51 | 333 | 1.0 | 9.0 | 0.00 | 0.00 | 0.00 | 63 | 1011.8 |
| 20260508083045 | 51 | 14 | 2.0 | 9.0 | 0.00 | 0.00 | 0.00 | 62 | 1011.5 |
| 20260508082525 | 51 | 322 | 2.0 | 9.0 | 0.00 | 0.00 | 0.00 | 62 | 1011.5 |
| 20260508082026 | 52 | 323 | 4.0 | 10.0 | 0.00 | 0.00 | 0.00 | 61 | 1011.2 |
| 20260508081542 | 52 | 10 | 3.0 | 11.0 | 0.00 | 0.00 | 0.00 | 61 | 1011.2 |
| 20260508081026 | 52 | 51 | 2.0 | 11.0 | 0.00 | 0.00 | 0.00 | 61 | 1011.1 |
| 20260508080526 | 52 | 336 | 4.0 | 12.0 | 0.00 | 0.00 | 0.00 | 60 | 1010.9 |
| 20260508080041 | 52 | 317 | 3.0 | 12.0 | 0.00 | 0.00 | 0.00 | 61 | 1010.9 |
| 20260508075526 | 53 | 246 | 3.0 | 17.0 | 0.00 | 0.00 | 0.00 | 61 | 1010.8 |
| 20260508075029 | 53 | 9 | 5.0 | 17.0 | 0.00 | 0.00 | 0.00 | 61 | 1010.6 |
| 20260508074545 | 53 | 278 | 4.0 | 13.0 | 0.00 | 0.00 | 0.00 | 63 | 1010.6 |
| 20260508074026 | 52 | 345 | 2.0 | 8.0 | 0.00 | 0.00 | 0.00 | 66 | 1010.7 |
| 20260508073522 | 52 | 328 | 3.0 | 8.0 | 0.00 | 0.00 | 0.00 | 66 | 1010.5 |
| 20260508073044 | 52 | 334 | 1.0 | 5.0 | 0.00 | 0.00 | 0.00 | 67 | 1010.4 |
| 20260508072524 | 53 | 321 | 2.0 | 5.0 | 0.00 | 0.00 | 0.00 | 67 | 1010.3 |
| 20260508072025 | 53 | 324 | 1.0 | 5.0 | 0.00 | 0.00 | 0.00 | 68 | 1010.1 |
| 20260508071544 | 53 | 336 | 2.0 | 5.0 | 0.00 | 0.00 | 0.00 | 69 | 1010.0 |
| 20260508071026 | 52 | 13 | 1.0 | 5.0 | 0.00 | 0.00 | 0.00 | 71 | 1009.9 |
| 20260508070526 | 52 | 306 | 1.0 | 5.0 | 0.00 | 0.00 | 0.00 | 72 | 1009.9 |
| 20260508070050 | 52 | 286 | 1.0 | 6.0 | 0.00 | 0.00 | 0.00 | 74 | 1009.8 |
| 20260508065530 | 52 | 299 | 1.0 | 6.0 | 0.00 | 0.09 | 0.00 | 75 | 1009.8 |
| 20260508065027 | 52 | 285 | 0.0 | 2.0 | 0.00 | 0.09 | 0.00 | 76 | 1009.7 |
| 20260508064544 | 52 | 298 | 1.0 | 2.0 | 0.00 | 0.09 | 0.00 | 76 | 1009.6 |
| 20260508064028 | 52 | 290 | 1.0 | 2.0 | 0.00 | 0.09 | 0.00 | 76 | 1009.6 |
| 20260508063533 | 52 | 272 | 1.0 | 3.0 | 0.00 | 0.09 | 0.00 | 76 | 1009.4 |
| 20260508063044 | 53 | 306 | 1.0 | 3.0 | 0.00 | 0.09 | 0.00 | 76 | 1009.4 |
| 20260508062525 | 53 | 263 | 1.0 | 4.0 | 0.00 | 0.09 | 0.00 | 76 | 1009.4 |
| 20260508062025 | 53 | 273 | 1.0 | 4.0 | 0.00 | 0.09 | 0.00 | 75 | 1009.3 |
| 20260508061545 | 53 | 309 | 1.0 | 4.0 | 0.00 | 0.09 | 0.00 | 75 | 1009.2 |
| 20260508061028 | 53 | 281 | 1.0 | 7.0 | 0.00 | 0.09 | 0.00 | 75 | 1009.1 |
| 20260508060526 | 53 | 275 | 1.0 | 7.0 | 0.00 | 0.09 | 0.00 | 74 | 1009.1 |
| 20260508060043 | 53 | 269 | 1.0 | 7.0 | 0.00 | 0.09 | 0.00 | 74 | 1009.1 |
| 20260508055528 | 53 | 290 | 1.0 | 6.0 | 0.00 | 0.12 | 0.00 | 74 | 1009.0 |
| 20260508055031 | 53 | 286 | 1.0 | 6.0 | 0.00 | 0.12 | 0.00 | 74 | 1009.0 |
| 20260508054544 | 53 | 283 | 1.0 | 3.0 | 0.00 | 0.12 | 0.00 | 74 | 1009.0 |
| 20260508054026 | 53 | 249 | 1.0 | 7.0 | 0.00 | 0.12 | 0.00 | 74 | 1009.0 |
| 20260508053527 | 53 | 297 | 1.0 | 7.0 | 0.00 | 0.12 | 0.00 | 74 | 1009.0 |
| 20260508053045 | 53 | 272 | 1.0 | 5.0 | 0.00 | 0.12 | 0.00 | 73 | 1008.9 |
| 20260508052525 | 53 | 270 | 1.0 | 5.0 | 0.00 | 0.12 | 0.00 | 73 | 1009.0 |
| 20260508052026 | 53 | 274 | 1.0 | 3.0 | 0.00 | 0.12 | 0.00 | 73 | 1009.0 |
| 20260508051536 | 53 | 277 | 1.0 | 3.0 | 0.00 | 0.12 | 0.00 | 73 | 1009.0 |
| 20260508051026 | 53 | 263 | 1.0 | 4.0 | 0.00 | 0.12 | 0.00 | 73 | 1009.0 |
| 20260508050526 | 53 | 286 | 1.0 | 4.0 | 0.00 | 0.12 | 0.00 | 73 | 1009.0 |
| 20260508050043 | 53 | 294 | 0.0 | 2.0 | 0.00 | 0.12 | 0.00 | 73 | 1009.1 |
| 20260508045526 | 53 | 290 | 0.0 | 3.0 | 0.00 | 0.12 | 0.00 | 73 | 1009.0 |
| 20260508045025 | 53 | 279 | 1.0 | 8.0 | 0.00 | 0.12 | 0.00 | 73 | 1009.1 |
| 20260508044554 | 53 | 274 | 2.0 | 8.0 | 0.00 | 0.12 | 0.00 | 73 | 1009.0 |
| 20260508044028 | 53 | 304 | 1.0 | 4.0 | 0.00 | 0.12 | 0.00 | 73 | 1009.0 |
| 20260508043526 | 52 | 317 | 1.0 | 4.0 | 0.00 | 0.12 | 0.00 | 73 | 1009.1 |
| 20260508043045 | 52 | 279 | 1.0 | 5.0 | 0.00 | 0.12 | 0.00 | 73 | 1009.0 |
| 20260508042528 | 52 | 290 | 1.0 | 6.0 | 0.00 | 0.12 | 0.00 | 73 | 1009.0 |
| 20260508042028 | 52 | 274 | 1.0 | 6.0 | 0.00 | 0.12 | 0.00 | 73 | 1009.0 |
| 20260508041553 | 52 | 269 | 1.0 | 4.0 | 0.00 | 0.12 | 0.00 | 73 | 1009.0 |
| 20260508041025 | 52 | 274 | 1.0 | 3.0 | 0.00 | 0.12 | 0.00 | 73 | 1009.0 |
| 20260508040526 | 52 | 282 | 1.0 | 3.0 | 0.00 | 0.12 | 0.00 | 72 | 1009.0 |
| 20260508040051 | 53 | 217 | 1.0 | 4.0 | 0.00 | 0.12 | 0.00 | 72 | 1008.9 |
| 20260508035528 | 53 | 263 | 1.0 | 4.0 | 0.00 | 0.12 | 0.12 | 72 | 1008.9 |
| 20260508035025 | 53 | 283 | 1.0 | 4.0 | 0.00 | 0.12 | 0.12 | 72 | 1008.8 |
| 20260508034545 | 53 | 271 | 1.0 | 6.0 | 0.00 | 0.12 | 0.12 | 72 | 1008.8 |
| 20260508034028 | 53 | 265 | 1.0 | 7.0 | 0.00 | 0.12 | 0.12 | 72 | 1008.8 |
| 20260508033525 | 53 | 360 | 1.0 | 7.0 | 0.00 | 0.12 | 0.12 | 72 | 1008.8 |
| 20260508033039 | 53 | 272 | 1.0 | 3.0 | 0.00 | 0.12 | 0.12 | 73 | 1008.9 |
| 20260508032527 | 53 | 281 | 1.0 | 3.0 | 0.00 | 0.12 | 0.12 | 73 | 1008.8 |
| 20260508032030 | 53 | 277 | 1.0 | 7.0 | 0.00 | 0.12 | 0.12 | 74 | 1008.9 |
| 20260508031556 | 53 | 294 | 1.0 | 7.0 | 0.00 | 0.12 | 0.12 | 74 | 1008.9 |
| 20260508031028 | 53 | 281 | 1.0 | 10.0 | 0.00 | 0.12 | 0.12 | 74 | 1008.8 |
| 20260508030524 | 53 | 296 | 1.0 | 10.0 | 0.00 | 0.12 | 0.12 | 75 | 1008.9 |
| 20260508030059 | 52 | 277 | 2.0 | 10.0 | 0.00 | 0.12 | 0.12 | 76 | 1008.9 |
| 20260508025528 | 52 | 218 | 2.0 | 5.0 | 0.00 | 0.12 | 0.12 | 76 | 1008.9 |
| 20260508025028 | 52 | 252 | 1.0 | 4.0 | 0.00 | 0.12 | 0.12 | 77 | 1008.9 |
| 20260508024543 | 52 | 170 | 1.0 | 4.0 | 0.00 | 0.12 | 0.12 | 77 | 1009.0 |
| 20260508024025 | 52 | 154 | 1.0 | 4.0 | 0.00 | 0.12 | 0.12 | 77 | 1008.8 |
| 20260508023524 | 52 | 211 | 1.0 | 4.0 | 0.00 | 0.12 | 0.12 | 76 | 1008.9 |
| 20260508023045 | 52 | 0 | 1.0 | 4.0 | 0.00 | 0.12 | 0.12 | 76 | 1009.0 |
| 20260508022528 | 52 | 159 | 1.0 | 4.0 | 0.00 | 0.12 | 0.12 | 76 | 1008.9 |
| 20260508022025 | 52 | 233 | 1.0 | 2.0 | 0.00 | 0.12 | 0.12 | 75 | 1008.9 |
| 20260508021546 | 53 | 230 | 0.0 | 2.0 | 0.00 | 0.12 | 0.12 | 74 | 1008.9 |
| 20260508021024 | 53 | 129 | 0.0 | 4.0 | 0.00 | 0.12 | 0.12 | 73 | 1008.7 |
| 20260508020524 | 53 | 0 | 0.0 | 4.0 | 0.00 | 0.12 | 0.12 | 72 | 1008.7 |
| 20260508020044 | 53 | 254 | 1.0 | 3.0 | 0.00 | 0.12 | 0.12 | 70 | 1008.7 |
| 20260508015524 | 54 | 229 | 0.0 | 3.0 | 0.00 | 0.12 | 0.12 | 67 | 1008.7 |
| 20260508015028 | 54 | 205 | 1.0 | 5.0 | 0.00 | 0.12 | 0.12 | 67 | 1008.7 |
| 20260508014545 | 54 | 123 | 0.0 | 6.0 | 0.00 | 0.12 | 0.12 | 66 | 1008.7 |
| 20260508014029 | 54 | 234 | 1.0 | 6.0 | 0.00 | 0.12 | 0.12 | 65 | 1008.7 |
| 20260508013528 | 54 | 173 | 1.0 | 7.0 | 0.00 | 0.12 | 0.12 | 61 | 1008.6 |
| 20260508013043 | 54 | 128 | 3.0 | 7.0 | 0.00 | 0.12 | 0.12 | 59 | 1008.6 |
| 20260508012525 | 54 | 125 | 2.0 | 4.0 | 0.00 | 0.12 | 0.12 | 56 | 1008.4 |
| 20260508012028 | 53 | 113 | 0.0 | 2.0 | 0.00 | 0.12 | 0.12 | 57 | 1008.4 |
| 20260508011540 | 53 | 0 | 0.0 | 0.0 | 0.00 | 0.12 | 0.12 | 61 | 1008.3 |
| 20260508011025 | 53 | 0 | 0.0 | 0.0 | 0.00 | 0.12 | 0.12 | 58 | 1008.1 |
| 20260508010525 | 54 | 0 | 0.0 | 0.0 | 0.00 | 0.12 | 0.12 | 57 | 1008.0 |
| 20260508010041 | 54 | 0 | 0.0 | 0.0 | 0.00 | 0.12 | 0.12 | 54 | 1008.1 |
| 20260508005530 | 54 | 0 | 0.0 | 0.0 | 0.00 | 0.12 | 0.12 | 54 | 1008.0 |
| 20260508005024 | 55 | 0 | 0.0 | 0.0 | 0.00 | 0.12 | 0.12 | 50 | 1008.1 |
| 20260508004542 | 55 | 0 | 0.0 | 0.0 | 0.00 | 0.12 | 0.12 | 52 | 1008.0 |
| 20260508004029 | 55 | 0 | 0.0 | 0.0 | 0.00 | 0.12 | 0.12 | 51 | 1007.9 |
| 20260508003531 | 56 | 0 | 0.0 | 0.0 | 0.00 | 0.12 | 0.12 | 48 | 1007.9 |
| 20260508003058 | 56 | 0 | 0.0 | 0.0 | 0.00 | 0.12 | 0.12 | 49 | 1008.0 |
| 20260508002529 | 57 | 0 | 0.0 | 0.0 | 0.00 | 0.12 | 0.12 | 49 | 1007.9 |
| 20260508002028 | 57 | 0 | 0.0 | 0.0 | 0.00 | 0.12 | 0.12 | 47 | 1007.9 |
| 20260508001543 | 58 | 0 | 0.0 | 0.0 | 0.00 | 0.12 | 0.12 | 47 | 1007.9 |
| 20260508001028 | 58 | 0 | 0.0 | 0.0 | 0.00 | 0.12 | 0.12 | 44 | 1007.7 |
| 20260508000525 | 59 | 0 | 0.0 | 0.0 | 0.00 | 0.12 | 0.12 | 42 | 1007.5 |
| 20260508000042 | 60 | 0 | 0.0 | 0.0 | 0.00 | 0.12 | 0.12 | 41 | 1007.6 |
| 20260507235525 | 60 | 0 | 0.0 | 1.0 | 0.00 | 0.12 | 0.12 | 41 | 1007.5 |
| 20260507235028 | 61 | 0 | 0.0 | 1.0 | 0.00 | 0.12 | 0.12 | 38 | 1007.6 |
| 20260507234546 | 61 | 0 | 0.0 | 1.0 | 0.00 | 0.12 | 0.12 | 38 | 1007.5 |
| 20260507234025 | 62 | 0 | 0.0 | 3.0 | 0.00 | 0.12 | 0.12 | 37 | 1007.4 |
| 20260507233525 | 62 | 0 | 0.0 | 3.0 | 0.00 | 0.12 | 0.12 | 35 | 1007.4 |
| 20260507233036 | 63 | 276 | 0.0 | 2.0 | 0.00 | 0.12 | 0.12 | 35 | 1007.2 |
| 20260507232525 | 63 | 298 | 1.0 | 3.0 | 0.00 | 0.12 | 0.12 | 34 | 1007.4 |
| 20260507232028 | 63 | 300 | 1.0 | 3.0 | 0.00 | 0.12 | 0.12 | 35 | 1007.3 |
| 20260507231552 | 63 | 331 | 0.0 | 3.0 | 0.00 | 0.12 | 0.12 | 34 | 1007.2 |
| 20260507231027 | 63 | 328 | 0.0 | 3.0 | 0.00 | 0.12 | 0.12 | 34 | 1007.1 |
| 20260507230528 | 63 | 342 | 1.0 | 2.0 | 0.00 | 0.12 | 0.12 | 34 | 1007.1 |
| 20260507230044 | 63 | 281 | 1.0 | 3.0 | 0.00 | 0.12 | 0.12 | 33 | 1006.9 |
| 20260507225528 | 64 | 294 | 1.0 | 8.0 | 0.00 | 0.12 | 0.12 | 32 | 1006.9 |
| 20260507225025 | 64 | 302 | 0.0 | 8.0 | 0.00 | 0.12 | 0.12 | 33 | 1006.9 |
| 20260507224555 | 64 | 307 | 1.0 | 8.0 | 0.00 | 0.12 | 0.12 | 34 | 1006.9 |
| 20260507224028 | 64 | 322 | 1.0 | 8.0 | 0.00 | 0.12 | 0.12 | 33 | 1006.9 |
| 20260507223528 | 64 | 330 | 3.0 | 8.0 | 0.00 | 0.12 | 0.12 | 32 | 1006.8 |
| 20260507223049 | 64 | 347 | 1.0 | 5.0 | 0.00 | 0.12 | 0.12 | 33 | 1006.9 |
| 20260507222527 | 64 | 329 | 2.0 | 5.0 | 0.00 | 0.12 | 0.12 | 31 | 1007.1 |
| 20260507222027 | 64 | 321 | 2.0 | 4.0 | 0.00 | 0.12 | 0.12 | 32 | 1007.0 |
| 20260507221545 | 64 | 53 | 2.0 | 4.0 | 0.00 | 0.12 | 0.12 | 33 | 1007.1 |
| 20260507221028 | 64 | 56 | 1.0 | 4.0 | 0.00 | 0.12 | 0.12 | 33 | 1007.2 |
| 20260507220527 | 64 | 323 | 1.0 | 5.0 | 0.00 | 0.12 | 0.12 | 35 | 1007.3 |
| 20260507220045 | 64 | 323 | 2.0 | 5.0 | 0.00 | 0.12 | 0.12 | 33 | 1007.2 |
| 20260507215525 | 64 | 298 | 2.0 | 9.0 | 0.00 | 0.12 | 0.12 | 33 | 1007.3 |
| 20260507215029 | 64 | 333 | 2.0 | 9.0 | 0.00 | 0.12 | 0.12 | 34 | 1007.4 |
| 20260507214546 | 64 | 274 | 3.0 | 9.0 | 0.00 | 0.12 | 0.12 | 34 | 1007.5 |
| 20260507214028 | 64 | 279 | 1.0 | 4.0 | 0.00 | 0.12 | 0.12 | 34 | 1007.4 |